Volver al catálogo

THORAD DELTA 1 DEB

ActivoSSO
NORAD 8556·DEBRIS·🇺🇸 United States

Lanzado Nov 15, 1974 desde Vandenberg Space Force Base

Loading…

Próximos Pases (próximas 24 horas)

TLE

ActualizadoSource: Space-Track

Época: Sep 14, 2026, 07:24 UTC

1 08556U 74089CT  26257.30851149  .00000049  00000-0  56609-3 0  9997
2 08556 101.3490  30.6843 0080569 353.1511  35.6770 12.53547947368131

Sigue THORAD DELTA 1 DEB en tiempo real con AllMySat

Download on the App Store